Location: Beaver Brook Station
(42.3793°N, 71.2203°W)
Time: 07:27:24
(UTC+00:00)

USA 281 - Pass Details

Date: 29 October 2020
Orbit: 1079 x 1080 km, 106.0° (Epoch: 23 November)

Event Time Altitude Azimuth Distance (km) Brightness Sun altitude
Rises 22:03:35 0° 149° (SSE) 3,862 6.0 -4.8°
Reaches altitude 10° 22:06:05 10° 148° (SSE) 2,910 5.3 -5.2°
Maximum altitude 22:12:37 78° 63° (ENE) 1,107 3.2 -6.4°
Drops below altitude 10° 22:19:10 10° 339° (NNW) 2,926 5.6 -7.6°
Sets 22:21:42 0° 338° (NNW) 3,886 6.3 -8.0°
